Retour au catalogue

STARLINK-37152

ActifCommunicationsSSO
NORAD 68616·PAYLOAD·🇺🇸 United States

Lancé Apr 5, 2026 depuis Vandenberg Space Force Base

Loading…

Prochains Passages (prochaines 24 heures)

TLE

FraisSource: CelesTrak SupGP

Époque: Sep 14, 2026, 21:40 UTC

1 68616C 26073Q   26257.90326389  .00087830  00000+0  27270-2 0  2579
2 68616  97.2851  96.0099 0001783  96.2115 271.2581 15.33388074    16

Suivez STARLINK-37152 en temps réel avec AllMySat

Download on the App Store